Search flights

Orlando Sanford Intl Airport, Orlando (KSFB)

Airport Weather & NOTAM's

METAR for:KSFB (Sanford Intl, FL, US)
Text:KSFB 180653Z AUTO 16004KT 10SM CLR 24/23 A2995 RMK AO2 SLP139 T02390228
Conditions at:0653 UTC 18 May 2024
Temperature: 23.9°C ( 75°F)
Dewpoint: 22.8°C ( 73°F) [RH = 94%]
Pressure (altimeter):29.95 inches Hg (1014.3 mb) [Sea level pressure: 1013.9 mb]
Winds:from the SSE (160 degrees) at 5 MPH (4 knots; 2.1 m/s)
Visibility:10 or more sm (16+ km)
Ceiling:at least 12,000 feet AGL
Clouds:sky clear below 12,000 feet AGL
QC Flag:automated observation with no human augmentation
TAF for:KSFB (Sanford Intl, FL, US) issued at 0539 UTC 18 May 2024
Text:KSFB 180539Z 1806/1906 18004KT P6SM BKN050
Forecast period:0600 to 1000 UTC 18 May 2024
Forecast type:FROM: standard forecast or significant change
Winds:from the S (180 degrees) at 5 MPH (4 knots; 2.1 m/s)
Visibility:6 or more sm (10+ km)
Ceiling:5000 feet AGL
Clouds:broken clouds at 5000 feet AGL
Text:FM181000 22005KT P6SM FEW015 SCT035
Forecast period:1000 to 1500 UTC 18 May 2024
Forecast type:FROM: standard forecast or significant change
Winds:from the SW (220 degrees) at 6 MPH (5 knots; 2.6 m/s)
Visibility:6 or more sm (10+ km)
Ceiling:at least 12,000 feet AGL
Clouds:few clouds at 1500 feet AGL, scattered clouds at 3500 feet AGL
Text:FM181500 24010G15KT P6SM SCT050 SCT150
Forecast period:1500 to 2000 UTC 18 May 2024
Forecast type:FROM: standard forecast or significant change
Winds:from the WSW (240 degrees) at 12 MPH (10 knots; 5.1 m/s) gusting to 17 MPH (15 knots; 7.7 m/s)
Visibility:6 or more sm (10+ km)
Ceiling:at least 12,000 feet AGL
Clouds:scattered clouds at 5000 feet AGL, scattered clouds at 15000 feet AGL
Text:FM182000 24012G20KT P6SM VCTS SCT050CB BKN150
Forecast period:2000 UTC 18 May 2024 to 0000 UTC 19 May 2024
Forecast type:FROM: standard forecast or significant change
Winds:from the WSW (240 degrees) at 14 MPH (12 knots; 6.2 m/s) gusting to 23 MPH (20 knots; 10.3 m/s)
Visibility:6 or more sm (10+ km)
Ceiling:15000 feet AGL
Clouds:scattered clouds at 5000 feet AGL, broken clouds at 15000 feet AGL
Weather:VCTS (thunderstorm in vicinity)
Text:FM190000 20005KT P6SM SCT050 BKN250
Forecast period:0000 to 0600 UTC 19 May 2024
Forecast type:FROM: standard forecast or significant change
Winds:from the SSW (200 degrees) at 6 MPH (5 knots; 2.6 m/s)
Visibility:6 or more sm (10+ km)
Ceiling:25000 feet AGL
Clouds:scattered clouds at 5000 feet AGL, broken clouds at 25000 feet AGL

Live Departures & Arrivals

There are currently no arrivals or departures for this airport.

Departures History (last 12 months)

Flight No. Dest. Aircraft Date
AAY1335 KLEX Fenix A320... 2024-05-17 22:51:26
AAY1192 KMLI Fenix A320... 2024-05-16 16:17:19
AAY1192 KMLI Fenix A320... 2024-05-15 22:46:27
AAY1192 KMLI Fly The Ma... 2024-05-14 22:11:34
AAY1249 KHGR FSLabs A31... 2024-05-13 21:10:14
AAY1599 KPVU Fenix A320... 2024-05-07 05:21:07
AAY6299 KMIA Boeing757-... 2024-05-06 22:48:46
AAY1195 KBGR Fenix A320... 2024-05-02 10:33:55
AAY167 KTYS Fenix A320... 2024-04-30 15:09:44
AAY374 KCHA Fly The Ma... 2024-04-29 10:48:08
AAY1195 KBGR Fenix A320... 2024-04-29 17:07:55
AAY1224 KRIC Fenix A320... 2024-04-25 12:59:10
AAY2893 KMLI Fenix A320... 2024-04-16 17:05:28
AAY371 KCVG Fly The Ma... 2024-04-14 18:45:58
AAY9205 KSAV Fenix A320... 2024-04-12 04:12:01
AAY1430 KTYS Fenix A320... 2024-03-29 02:08:42
AAY1198 KBGR B738 2024-03-28 11:25:00
AAY1327 KPBG PMDG 737-8... 2024-03-23 11:23:09
AAY1323 KORF Fenix A320... 2024-03-18 10:30:38
AAY3032 KPGD Rotate-MD-... 2024-03-16 22:24:18
AAY2515 KUNV Fenix A320... 2024-03-08 14:40:04
AAY2974 KJQF Fenix A320... 2024-03-05 00:56:29
AAY1288 KPIA ToLissA319... 2024-03-05 21:30:21
AAY174 KABE B737 2024-03-04 03:28:00
AAY2952 KALB Fenix A320... 2024-03-03 10:59:33
AAY2822 KEYW ToLissA319... 2024-03-03 18:08:00
AAY1266 KMDT Fenix A320... 2024-03-03 22:47:04
AAY877 KPIE FenixA320_... 2024-02-26 00:04:11
AAY318 KPIE B738 2024-02-26 00:30:00
AAY1346 KOMA FenixA320_... 2024-02-24 13:14:45
AAY2839 KSYR FenixA320_... 2024-02-14 22:54:47
AAY1430 KTYS FenixA320_... 2024-02-12 21:55:35
AAY1295 KRIC FenixA320_... 2024-02-07 17:10:45
AAY2940 KIAG FenixA320_... 2024-01-31 13:13:49
AAY2912 KMDT FenixA320_... 2024-01-25 12:19:49
AAY2775 KCAK FWB Allegi... 2024-01-24 18:18:01
AAY1322 KMLI FenixA320_... 2024-01-21 17:21:32
AAY1219 KORF FenixA320_... 2024-01-20 05:44:02
AAY1339 KTUL Fly The Ma... 2024-01-16 16:56:33
AAY1269 KGSP FenixA320_... 2024-01-14 00:28:18
AAY201 KABE FenixA320_... 2024-01-08 21:31:09
AAY1350 KTYS PMDG 737-7... 2024-01-08 00:26:44
AAY1258 KPBG Fly The Ma... 2024-01-07 14:52:37
AAY2824 KELM FenixA320_... 2024-01-06 04:52:23
AAY1197 KGSP ToLissA319... 2023-12-28 21:45:51
AAY228 KAVL FenixA320_... 2023-12-27 20:06:59
AAY2206 KGRR PMDG 737-7... 2023-12-24 17:34:32
AAY2856 KDAY PMDG 737-8... 2023-12-23 21:34:22
AAY181 KABE PMDG 737-8... 2023-12-23 21:58:50
AAY1150 KPIT B738 2023-12-19 18:05:00
AAY3187 KATW Fly The Ma... 2023-12-16 16:19:07
AAY1107 KPIT Airbus A31... 2023-12-13 14:30:33
AAY9200 KFLL FenixA320_... 2023-12-11 23:03:33
AAY1350 KTYS Airbus A32... 2023-12-11 00:53:41
AAY2917 KMDT Airbus A32... 2023-12-10 18:33:39
1204 KDAY A320 2023-12-10 05:30:00
AAY2840 KSYR Fly The Ma... 2023-12-09 14:32:28
AAY2822 KEYW Fly The Ma... 2023-12-09 12:51:52
AAY1311 KBIS FenixA320_... 2023-12-09 14:05:17
AAY900 KELM Fly The Ma... 2023-12-07 22:48:56
AAY1275 KLIT Fly The Ma... 2023-12-07 19:03:57
AAY1322 KMLI Airbus A32... 2023-12-06 15:00:27
AAY1253 KHTS FlightFact... 2023-12-06 00:15:59
AAY1107 KPIT PMDG 737-8... 2023-12-05 23:45:38
AAY2959 KMLI PMDG 737-8... 2023-12-03 15:05:24
AAY1195 KSDF PMDG 737-8... 2023-12-03 17:03:10
AAY2822 KEYW PMDG 737-8... 2023-12-02 18:05:49
AAY3236 KPVU Airbus A32... 2023-11-27 13:57:52
AAY1252 KBGR Fly The Ma... 2023-11-25 15:56:12
AAY3239 KPVU Airbus A32... 2023-11-22 16:05:38
AAY1219 KORF FenixA320_... 2023-11-21 17:52:09
AAY1211 KEYW ToLissA319... 2023-11-20 04:59:27
AAY620 KCVG Fly The Ma... 2023-11-18 22:50:22
AAY1107 KPIT FenixA320_... 2023-11-15 03:30:23
AAY181 KABE Airbus A32... 2023-11-14 18:22:32
AAY1201 KAVL Allegiant_... 2023-11-14 01:40:02
AAY2832 KMDT Airbus A32... 2023-11-13 19:37:41
AAY1107 KPIT Fly The Ma... 2023-11-12 16:49:31
AAY1330 KJQF FenixA320_... 2023-11-08 11:25:52
AAY9500 KMLB Airbus A32... 2023-11-03 01:04:06
AAY391 KCVG Airbus A32... 2023-11-03 03:49:28
AAY4545 KGRR FWB Allegi... 2023-10-30 14:29:01
AAY2171 KGRR FenixA320_... 2023-10-30 14:29:54
AAY2762 KPIT FenixA320... 2023-10-22 00:22:02
AAY9412 KMYR Fly The Ma... 2023-10-14 15:11:42
AAY598 KIND FenixA320_... 2023-10-06 22:09:18
AAY9507 KLCQ Airbus A31... 2023-10-04 01:06:48
AAY1866 KAVL FenixA320_... 2023-09-23 20:40:46
AAY2822 KEYW PA319 - Al... 2023-09-06 19:41:08
AAY1963 KBNA FenixA320_... 2023-09-06 12:59:35
AAY1214 KHGR FenixA320_... 2023-09-04 13:19:04
AAY2890 KTRI FenixA320_... 2023-09-01 23:35:23
AAY1211 KEYW ToLissA319... 2023-08-29 14:53:13
AAY2822 KEYW Fly The Ma... 2023-08-19 19:33:43
AAY248 KAVL Airbus A31... 2023-08-17 10:53:14
AAY708 KLRD MD80 2023-08-15 14:00:00
AAY1589 KPVU FenixA320_... 2023-08-15 16:13:21
AAY2947 KSYR FenixA320_... 2023-08-08 19:56:52
AAY1347 KXNA ToLissA319... 2023-07-31 18:59:08
AAY2815 KBIS Fly The Ma... 2023-07-28 15:23:27
AAY1126 KPIT A339 2023-07-27 06:03:00
AAY2960 KGFK Fly The Ma... 2023-07-22 14:52:13
AAY1236 KHTS Fly The Ma... 2023-07-22 03:19:53
AAY2910 KEVV FenixA320_... 2023-07-18 06:49:41
AAY1300 KIAG Airbus A31... 2023-07-13 20:59:04
AAY630 KHGR Fly The Ma... 2023-07-11 01:33:17
AAY786 KXNA Fly The Ma... 2023-07-10 00:48:18
AAY658 KOKC Fly The Ma... 2023-07-10 19:55:48
AAY2895 KTRI FenixA320_... 2023-07-09 11:46:24
AAY766 KSPI Fly The Ma... 2023-07-08 00:11:16
AAY1344 KTVC Fly The Ma... 2023-07-03 20:06:45
AAY1211 KEYW FenixA320_... 2023-07-02 16:00:00
2856 KFNT A320 2023-07-01 11:26:00
AAY1589 KPVU FWB Allegi... 2023-06-29 21:00:35
AAY9500 KMLB Airbus A32... 2023-06-27 00:26:49
800 KLAS Rotate-MD-... 2023-06-26 17:13:28
800 KFLL Fly The Ma... 2023-06-25 18:04:32
AAY2831 KFAR Airbus A32... 2023-06-19 23:29:42
AAY167 KABE Airbus A32... 2023-06-18 00:56:45
AAY1226 KORF Airbus A32... 2023-06-18 03:11:53
AAY361 KCHA Airbus A32... 2023-06-17 03:35:46
AAY2868 KMFE Airbus A32... 2023-06-16 13:25:37
AAY1245 KGSP Airbus A32... 2023-06-16 03:45:31
AAY1218 KFWA Airbus A32... 2023-06-16 01:39:09
AAY2953 KBGR Airbus A32... 2023-06-15 16:14:03
AAY248 KAVL Airbus A32... 2023-06-15 14:11:05
801 KLAS Fly The Ma... 2023-06-15 15:44:05
AAY9416 KVCV Fly The Ma... 2023-06-13 16:12:05
801 KSBN Fly The Ma... 2023-06-10 00:09:47
800 KLAS Fly The Ma... 2023-06-07 16:15:51
AAY361 KCHA FenixA320_... 2023-06-02 15:45:25
AAY9100 KSRQ FenixA320_... 2023-05-28 06:27:34
AAY1201 KAVL Fly The Ma... 2023-05-22 13:07:52

Arrivals History (last 12 months)

Flight No. Origin Aircraft Date
AAY453 KDSM PMDG 737-8... 2024-05-17 16:00:37
AAY2889 KLEX Fenix A320... 2024-05-17 03:49:31
AAY453 KDSM Fenix A320... 2024-05-16 14:20:38
AAY453 KDSM Fenix A320... 2024-05-14 22:20:50
AAY1248 KHGR FSLabs A31... 2024-05-14 01:19:12
AAY453 KDSM Fly The Ma... 2024-05-13 22:04:42
AAY3123 KAUS Fenix A320... 2024-05-10 20:04:57
AAY2840 KPSM Fenix A320... 2024-05-06 20:33:04
AAY234 KAVL Boeing757-... 2024-05-05 20:28:13
AAY1225 KEYW PMDG 737-8... 2024-05-05 17:07:49
AAY228 KAVL Fenix A320... 2024-05-02 00:20:42
AAY227 KAVL Fly The Ma... 2024-05-02 22:58:10
AAY1195 KBGR Fenix A320... 2024-04-30 14:51:15
AAY1558 KATW Fenix A320... 2024-04-28 23:23:52
AAY2828 KPIA Fenix A320... 2024-04-22 03:21:13
AAY1325 KOMA ToLiss319_... 2024-04-21 22:39:30
AAY738 KJQF Fenix A320... 2024-04-19 01:09:45
AAY300 KCID Fenix A320... 2024-04-19 01:39:31
AAY1304 KFNT Fenix A320... 2024-04-15 19:13:28
AAY1197 KMDT Fenix A320... 2024-04-15 19:54:20
AAY1209 KIAG Fly The Ma... 2024-04-13 23:04:45
AAY403 KCHA Fenix A320... 2024-04-12 23:58:01
AAY9205 KPGD Rotate-MD-... 2024-04-03 20:10:09
AAY1195 KBGR Fenix A320... 2024-03-28 19:39:38
AAY1198 KPBG PMDG 737-8... 2024-03-24 17:22:38
AAY227 KAVL Fenix A320... 2024-03-22 03:45:53
AAY220 KAVL Fenix A320... 2024-03-21 02:59:23
AAY1247 KLEX PMDG 737-8... 2024-03-20 21:47:26
AAY2937 KJQF Fenix A320... 2024-03-17 03:05:58
AAY1274 KROA ToLissA319... 2024-03-05 06:34:55
1279 KJQF A320 2024-03-05 04:18:00
AAY2895 KALB Fenix A320... 2024-03-04 06:39:03
AAY186 KABE Fenix A320... 2024-03-04 13:20:30
AAY176 KABE Fenix A320... 2024-03-02 03:06:17
AAY1288 KLCK Fenix A320... 2024-03-02 22:07:17
AAY2960 KMOT FenixA320_... 2024-02-24 13:02:56
AAY429 KCVG FenixA320_... 2024-02-07 01:41:55
AAY1245 KLEX FenixA320_... 2024-02-07 01:11:04
AAY41338 KLIT FenixA320_... 2024-02-03 22:29:21
AAY1227 KIAG FenixA320_... 2024-01-31 21:33:54
AAY186 KABE PMDG 737-7... 2024-01-30 23:38:26
AAY2933 KMDT FenixA320_... 2024-01-26 16:34:27
AAY1339 KHTS FenixA320_... 2024-01-26 13:34:04
AAY3029 KTYS Fly The Ma... 2024-01-21 14:52:45
AAY186 KABE FenixA320_... 2024-01-19 23:25:32
AAY1288 KELM PMDG 737-7... 2024-01-07 01:37:12
AAY259 KAVL FenixA320_... 2024-01-06 15:27:44
AAY1219 KSGF Fly The Ma... 2024-01-04 05:41:20
AAY1194 KJQF MD82 2024-01-03 04:20:00
AAY221 KAVL FenixA320_... 2023-12-27 23:23:17
AAY1121 KPIT PMDG 737-8... 2023-12-20 22:36:45
AAY1234 KSBN PMDG 737-8... 2023-12-18 22:06:03
AAY2865 KJQF PMDG 737-7... 2023-12-17 15:33:20
AAY1327 KFWA Fly The Ma... 2023-12-16 15:26:34
AAY4501 KSHV FenixA320_... 2023-12-14 01:53:09
AAY1258 KMDT Airbus A31... 2023-12-12 16:49:23
AAY2883 KTYS Airbus A32... 2023-12-11 04:29:39
AAY2882 KMDT Airbus A32... 2023-12-10 23:46:43
AAY1199 KBIS Airbus A32... 2023-12-10 00:00:49
AAY1196 KDAY Airbus A32... 2023-12-10 17:54:12
AAY1350 KLIT Fly The Ma... 2023-12-08 14:51:57
AAY1288 KELM Fly The Ma... 2023-12-08 01:44:12
AAY2950 KABE Airbus A31... 2023-12-07 01:00:27
AAY1218 KMLI Fly The Ma... 2023-12-07 02:04:37
AAY361 KCVG Fly The Ma... 2023-12-06 22:13:27
AAY259 KAVL FlightFact... 2023-12-05 23:29:13
AAY1268 KMEM PMDG 737-8... 2023-12-03 13:19:02
AAY1258 KMDT PMDG 737-8... 2023-12-02 18:51:03
AAY9220 KPVU Airbus A32... 2023-11-26 21:21:08
AAY9220 KPVU Fly The Ma... 2023-11-25 15:40:43
AAY2934 KGFK Airbus A32... 2023-11-24 21:07:59
AAY1260 KAVL Airbus A32... 2023-11-24 17:07:10
AAY1234 KLAS Airbus A32... 2023-11-24 15:40:09
AAY426 KCVG Airbus A32... 2023-11-23 19:49:14
AAY1603 KPVU Airbus A32... 2023-11-23 01:11:08
AAY1191 KBGR Fly The Ma... 2023-11-23 13:31:02
AAY2949 KGFK Airbus A32... 2023-11-22 00:20:23
AAY2112 KPDX Airbus A32... 2023-11-22 15:48:00
AAY1260 KAVL Airbus A32... 2023-11-21 17:06:00
AAY186 KABE FenixA320_... 2023-11-20 20:19:17
AAY1350 KBNA Fly The Ma... 2023-11-16 00:54:04
AAY1258 KMDT FenixA320_... 2023-11-15 02:42:39
AAY1200 KAVL Allegiant_... 2023-11-14 00:29:09
AAY1258 KMDT Fly The Ma... 2023-11-12 16:43:22
AAY270 KAVL Airbus A32... 2023-10-31 08:26:51
AAY42915 KGSP FWB Allegi... 2023-10-29 23:16:37
AAY1239 KORF FenixA320_... 2023-10-16 02:08:02
AAY1308 KOMA FenixA320_... 2023-09-03 22:08:21
AAY3034 KTYS FenixA320_... 2023-08-31 23:19:25
AAY1148 KGSO FenixA320_... 2023-08-31 02:13:19
AAY9415 KMYR FenixA320 2023-08-25 02:19:43
AAY9209 KFLL Airbus A32... 2023-08-23 02:17:31
AAY3242 KPVU FenixA320_... 2023-08-16 22:09:11
AAY747 KSAT MD80 2023-08-15 23:45:00
AAY2034 KCVG FenixA320_... 2023-08-12 05:57:12
AAY1276 KROA FenixA320_... 2023-08-04 13:17:46
AAY9118 KDSM Airbus A32... 2023-08-03 14:15:20
AAY1850 KAVL ToLissA319... 2023-07-31 05:47:04
AAY1219 KBIS Fly The Ma... 2023-07-28 22:33:23
AAY695 KEVV FenixA320_... 2023-07-27 05:53:04
AAY1210 KJQF Fly The Ma... 2023-07-22 19:54:49
AAY9409 KMEM FWB Allegi... 2023-07-20 09:30:26
AAY9409 KMEM Airbus A32... 2023-07-20 09:30:30
AAY695 KEVV Fly The Ma... 2023-07-18 03:02:08
AAY1301 KBIS Airbus A31... 2023-07-15 17:44:09
AAY1603 KPVU Fly The Ma... 2023-07-12 23:57:58
AAY627 KSDF Airbus A32... 2023-07-10 16:34:53
AAY2971 KTOL FenixA320_... 2023-07-08 14:14:55
AAY2899 KOWB Fly The Ma... 2023-07-08 04:49:11
AAY4501 KCAK FenixA320_... 2023-06-28 13:27:01
AAY2846 KEYW FWB Allegi... 2023-06-27 23:59:52
AAY547 KGRR Airbus A32... 2023-06-19 05:14:40
AAY9415 KSWF Fly The Ma... 2023-06-13 15:51:24
800 KLAS Fly The Ma... 2023-06-13 23:39:07
AAY1203 KICT Fly The Ma... 2023-06-07 02:20:34
AAY382 KCHA FenixA320_... 2023-06-02 19:27:34
AAY3064 KTYS FenixA320_... 2023-05-28 05:15:17
{}AAY2913 KCAK FWB Allegi... 2023-05-27 18:27:44

Runway Information (Airport elevation: 43ft)

Runway 09C Length 3,578ft Width 75ft Elevation 43ft Surface Asphalt Heading 90
Runway 09L Length 11,008ft Width 150ft Elevation 43ft Surface Asphalt Heading 90
Runway 09R Length 6,647ft Width 75ft Elevation 43ft Surface Asphalt Heading 90
Runway 18 Length 6,003ft Width 150ft Elevation 43ft Surface Asphalt Heading 180
Runway 27C Length 3,578ft Width 75ft Elevation 43ft Surface Asphalt Heading 270
Runway 27L Length 6,647ft Width 75ft Elevation 43ft Surface Asphalt Heading 270
Runway 27R Length 11,008ft Width 150ft Elevation 43ft Surface Asphalt Heading 270
Runway 36 Length 6,003ft Width 150ft Elevation 43ft Surface Asphalt Heading 360

Airport Frequencies

Type APP/DEP Frequency 119.775 Mhz
Type APP/DEP Frequency 135.300 Mhz
Type ASOS Frequency 125.975 Mhz
Type ATIS Frequency 125.975 Mhz
Type Clearance Frequency 121.350 Mhz
Type Clearance Frequency 123.975 Mhz
Type D Frequency 119.775 Mhz
Type D Frequency 135.300 Mhz
Type Ground Frequency 121.350 Mhz
Type Tower Frequency 120.300 Mhz
Type Tower Frequency 135.250 Mhz
Type Clearance Frequency 121.350 Mhz

Airport Navaids

Type NDB Ident SFB Frequency 408 Khz